This is the latest recevied weather packets stored in our database for station/object N5PLO-10. If no packets are shown the sender has not sent any weather packets the latest 10 day(s).
| Time | Temp. | Humidity | Pressure | Rain* | Wind** | Luminosity | Snow |
|---|---|---|---|---|---|---|---|
| 1777643604 | 16.67° C | 99% | 1015.7 hPa | 0 mm | - | 12 W/m² | - |
| 1777643301 | 16.67° C | 99% | 1015.6 hPa | 0 mm | - | 7 W/m² | - |
| 1777642997 | 16.67° C | 99% | 1015.5 hPa | 0 mm | - | 10 W/m² | - |
| 1777642694 | 16.67° C | 99% | 1015.7 hPa | 1.27 mm | - | 13 W/m² | - |
| 1777642391 | 16.67° C | 99% | 1015.5 hPa | 1.27 mm | - | 10 W/m² | - |
| 1777642082 | 16.67° C | 99% | 1015.6 hPa | 0 mm | - | 6 W/m² | - |
| 1777641777 | 16.67° C | 99% | 1015.6 hPa | 0 mm | - | 8 W/m² | - |
| 1777641472 | 16.67° C | 99% | 1016.1 hPa | 0 mm | - | 8 W/m² | - |
| 1777641168 | 16.67° C | 99% | 1015.9 hPa | 0 mm | - | 3 W/m² | - |
| 1777640864 | 16.67° C | 99% | 1016 hPa | 0 mm | - | 4 W/m² | - |
| 1777640562 | 16.67° C | 99% | 1015.6 hPa | 0 mm | - | 3 W/m² | - |
| 1777640258 | 16.67° C | 99% | 1015.2 hPa | 0 mm | - | 4 W/m² | - |
| 1777639954 | 16.67° C | 99% | 1015.1 hPa | 0 mm | - | 4 W/m² | - |
| 1777639651 | 16.67° C | 99% | 1015.3 hPa | 0 mm | - | 4 W/m² | - |
| 1777639349 | 16.67° C | 99% | 1015 hPa | 0 mm | - | 5 W/m² | - |
| 1777639044 | 16.67° C | 99% | 1015 hPa | 0 mm | - | 4 W/m² | - |
| 1777638741 | 16.67° C | 99% | 1015.2 hPa | 0 mm | - | 4 W/m² | - |
| 1777638437 | 16.67° C | 99% | 1015.3 hPa | 0 mm | - | 2 W/m² | - |
| 1777638135 | 16.67° C | 99% | 1015.4 hPa | 0 mm | - | 1 W/m² | - |
| 1777637829 | 16.67° C | 99% | 1014.8 hPa | 1.78 mm | - | 1 W/m² | - |
| 1777637527 | 16.67° C | 99% | 1014.3 hPa | 1.78 mm | - | 1 W/m² | - |
| 1777637224 | 16.67° C | 99% | 1013.8 hPa | 0 mm | - | 2 W/m² | - |
| 1777636921 | 16.67° C | 99% | 1014.4 hPa | 0 mm | - | 1 W/m² | - |
| 1777636616 | 16.67° C | 99% | 1014.9 hPa | 0 mm | - | 0 W/m² | - |
| 1777636313 | 16.67° C | 99% | 1014.9 hPa | 0 mm | - | 0 W/m² | - |
* Rain latest hour (hover to see other rain measurements)
** Current wind speed in m/s (hover to see current wind gust speed)